User: anonymous   Login
Location: Fort Wayne
(41.1310°N, 85.1290°W)
Time: 11:52:47
(UTC-04:00)
Language:

Helios 1B - Orbit

View from above orbital plane
View from above orbital plane
View from above satellite
View from above satellite

Ground track
Ground track

The orbit data is extracted from the following two-line orbital elements,

1 25977U 99064A   14302.86950161  .00001759  00000-0  23616-3 0  4071
2 25977 098.1564 022.5734 0002208 127.5214 007.9007 14.80641214801656
Epoch (UTC): 29 October 2014 20:52:04
Eccentricity: 0.0002208
inclination: 98.1564°
perigee height: 626 km
apogee height: 629 km
right ascension of ascending node: 22.5734°
argument of perigee: 127.5214°
revolutions per day: 14.80641214
mean anomaly at epoch: 7.9007°
orbit number at epoch: 80165

The dashed part of the orbit path shows where the satellite is in the earth's shadow,  

DLR